This demonstration page uses our WeatherBlox Daily Observations layout. Learn more.

Left ArrowRight Arrow

41.12389, -100.76542

Hourly Observations for June 23, 2022

Temp ( °F °C ) Dew Point ( °F °C ) Humidity (%) Winds ( mph kmh ) Pressure ( in mb ) Visibility ( mi km ) Precip ( " mm )
12:53 am 00:53 Clear 73 22.8 61 16.1 66 66 S 12 19 30.00 1016 10 16 0.00 0.00
1:53 am 01:53 Clear 70 21.1 61 16.1 73 73 SSE 7 11 29.98 1015 10 16 0.00 0.00
2:53 am 02:53 Clear 67 19.4 61 16.1 81 81 SE 7 11 29.97 1015 10 16 0.00 0.00
3:53 am 03:53 Clear 63 17.2 60 15.6 90 90 ESE 6 9 29.96 1014 10 16 0.00 0.00
4:53 am 04:53 Clear 62 16.7 59 15 90 90 Calm 29.95 1014 10 16 0.00 0.00
5:53 am 05:53 Clear with Mist and Fog 63 17.2 61 16.1 93 93 E 6 9 29.94 1014 5 8 0.00 0.00
6:20 am 06:20 Sunny with Mist and Fog 62 16.7 60 15.6 93 93 ESE 6 9 29.93 1014 2 3 0.00 0.00
6:23 am 06:23 Partly Cloudy with Mist and Fog 62 16.7 60 15.6 93 93 ESE 6 9 29.93 1014 2 2 0.00 0.00
6:25 am 06:25 Mostly Cloudy with Mist and Fog 62 16.7 60 15.6 93 93 ESE 5 7 29.93 1014 1 2 0.00 0.00
6:32 am 06:32 Mostly Cloudy with Fog 62 16.7 60 15.6 93 93 ESE 5 7 29.93 1014 0 0 0.00 0.00
6:44 am 06:44 Mostly Cloudy with Fog 63 17.2 61 16.1 93 93 E 5 7 29.93 1014 0 0 0.00 0.00
6:53 am 06:53 Mostly Cloudy with Fog 64 17.8 62 16.7 93 93 E 6 9 29.93 1013 0 0 0.00 0.00
7:39 am 07:39 Mostly Cloudy with Mist and Fog 67 19.4 65 18.3 93 93 ESE 6 9 29.90 1012 1 2 0.00 0.00
7:44 am 07:44 Mostly Cloudy with Mist and Fog 67 19.4 65 18.3 93 93 E 5 7 29.90 1012 2 3 0.00 0.00
7:51 am 07:51 Partly Cloudy with Mist and Fog 66 19 64 18 94 94 E 5 7 29.90 1013 5 8 0.00 0.00
7:52 am 07:52 Partly Cloudy with Mist and Fog 67 19.4 65 18.3 93 93 E 5 7 29.92 1013 5 8 0.00 0.00
8:53 am 08:53 Sunny 75 23.9 66 18.9 74 74 SSE 5 7 29.89 1012 10 16 0.00 0.00
9:53 am 09:53 Sunny 80 26.7 65 18.3 60 60 SSE 9 15 29.88 1012 10 16 0.00 0.00
10:53 am 10:53 Sunny 84 28.9 64 17.8 51 51 S 10 17 29.85 1011 10 16 0.00 0.00
11:53 am 11:53 Sunny 87 30.6 64 17.8 46 46 SSE 9 15 29.83 1010 10 16 0.00 0.00
12:53 pm 12:53 Sunny 90 32.2 61 16.1 38 38 S 14 22 29.82 1010 10 16 0.00 0.00
1:53 pm 13:53 Sunny 93 33.9 61 16.1 34 34 S 10 17 29.80 1009 10 16 0.00 0.00
2:53 pm 14:53 Sunny 96 35.6 55 12.8 25 25 SE 9 15 29.78 1008 10 16 0.00 0.00
3:53 pm 15:53 Sunny 97 36.1 57 13.9 26 26 SSE 10 17 29.75 1008 10 16 0.00 0.00
4:53 pm 16:53 Mostly Sunny 95 35 60 15.6 31 31 SE 9 15 29.74 1007 10 16 0.00 0.00
5:53 pm 17:53 Sunny 95 35 61 16.1 32 32 SE 8 13 29.73 1007 10 16 0.00 0.00
6:53 pm 18:53 Sunny 93 33.9 65 18.3 40 40 ESE 15 24 29.73 1007 10 16 0.00 0.00
7:53 pm 19:53 Sunny 86 30 69 20.6 57 57 ESE 17 28 29.75 1007 10 16 0.00 0.00
8:53 pm 20:53 Sunny 83 28.3 69 20.6 63 63 ESE 13 20 29.75 1008 10 16 0.00 0.00
9:53 pm 21:53 Clear 81 27.2 70 21.1 69 69 ESE 9 15 29.76 1008 10 16 0.00 0.00
10:53 pm 22:53 Clear 76 24.4 65 18.3 69 69 E 8 13 29.77 1008 10 16 0.00 0.00
11:53 pm 23:53 Clear 75 23.9 65 18.3 71 71 SE 13 20 29.77 1008 10 16 0.00 0.00

Powered by AerisWeather